Telluride, CO

3:58 AM MDT on June 18, 2018 (GMT -0600)
Telluride Regional

Weather History for KTEX - October, 2017

Change the Weather History Date:

Saturday, October 14, 2017

  Actual Average Record
Temperature  
Mean Temperature 46 °F -  
Max Temperature 51 °F 51 °F 68 °F (2015)
Min Temperature 40 °F 32 °F 26 °F (1997)
Degree Days  
Heating Degree Days 20    
Moisture  
Dew Point 12 °F    
Average Humidity 25    
Maximum Humidity 35    
Minimum Humidity 13    
Precipitation  
Precipitation 0.00 in - - ()
Sea Level Pressure  
Sea Level Pressure 30.31 in    
Wind  
Wind Speed 6 mph (West)    
Max Wind Speed 21 mph    
Max Gust Speed 31 mph    
Visibility 10 miles    
Events      
Averages and records for this station are not official NWS values.
T = Trace of Precipitation, MM = Missing Value Source: NWS Daily Summary

Daily Weather History Graph

Daily Weather History Graph

Search for Another Location

Airport or City:

Astronomy

Oct. 14, 2017 Rise Set
Actual Time 7:19 AM MDT 6:34 PM MDT
Civil Twilight 6:53 AM MDT 7:01 PM MDT
Nautical Twilight 6:22 AM MDT 7:31 PM MDT
Astronomical Twilight 5:52 AM MDT 8:02 PM MDT
Moon 1:55 AM MDT (10/14) 4:00 PM MDT (10/14)
Length of Visible Light 12h 08m
Length of Day
11h 15m
Waning Crescent, 26% of the Moon is Illuminated
Oct 14
Waning Crescent
Oct 19
New
Oct 27
First Quarter
Nov 3
Full
Nov 10
Last Quarter

Hourly Weather History & Observations

Time (MDT) Temp. Windchill Dew Point Humidity Pressure Visibility Wind Dir Wind Speed Gust Speed Precip Events Conditions
1:35 AM 51.3 °F - 18.1 °F 27% 30.24 in 10.0 mi Calm Calm - N/A   Clear
1:55 AM 50.4 °F - 18.9 °F 29% 30.24 in 10.0 mi West 5.8 mph - N/A   Clear
2:15 AM 50.0 °F - 19.0 °F 29% 30.25 in 10.0 mi WSW 6.9 mph - N/A   Clear
2:35 AM 50.0 °F - 18.7 °F 29% 30.25 in 10.0 mi West 10.4 mph - N/A   Clear
3:15 AM 50.0 °F - 16.3 °F 26% 30.24 in 10.0 mi SW 13.8 mph 29.9 mph N/A   Clear
3:35 AM 48.4 °F - 18.0 °F 30% 30.24 in 10.0 mi SSE 3.5 mph 18.4 mph N/A   Clear
3:55 AM 47.3 °F - 18.3 °F 32% 30.24 in 10.0 mi Calm Calm - N/A   Clear
4:15 AM 46.2 °F - 18.1 °F 33% 30.24 in 10.0 mi Calm Calm - N/A   Clear
4:35 AM 44.2 °F - 18.0 °F 35% 30.24 in 10.0 mi Calm Calm - N/A   Clear
4:55 AM 44.2 °F 41.0 °F 17.8 °F 35% 30.24 in 10.0 mi East 5.8 mph - N/A   Clear
5:15 AM 44.8 °F 43.3 °F 16.7 °F 32% 30.25 in 10.0 mi WNW 3.5 mph - N/A   Clear
5:35 AM 45.0 °F 43.5 °F 15.6 °F 31% 30.25 in 10.0 mi ESE 3.5 mph - N/A   Clear
5:55 AM 44.1 °F 42.5 °F 15.3 °F 31% 30.26 in 10.0 mi West 3.5 mph - N/A   Clear
6:15 AM 42.8 °F - 15.3 °F 33% 30.27 in 10.0 mi Calm Calm - N/A   Clear
6:35 AM 43.3 °F - 14.7 °F 32% 30.27 in 10.0 mi Calm Calm - N/A   Clear
6:55 AM 42.6 °F 40.9 °F 14.2 °F 32% 30.27 in 10.0 mi SE 3.5 mph - N/A   Clear
7:15 AM 41.7 °F - 13.3 °F 32% 30.27 in 10.0 mi Calm Calm - N/A   Clear
7:35 AM 40.5 °F - 13.3 °F 33% 30.27 in 10.0 mi Calm Calm - N/A   Clear
7:55 AM 42.4 °F 39.6 °F 11.7 °F 29% 30.28 in 10.0 mi ENE 4.6 mph - N/A   Clear
8:35 AM 45.5 °F - 11.7 °F 25% 30.29 in 10.0 mi Calm Calm - N/A   Clear
8:55 AM 45.7 °F - 12.7 °F 26% 30.29 in 10.0 mi Calm Calm - N/A   Clear
9:35 AM 48.6 °F - 5.2 °F 17% 30.29 in 10.0 mi WNW 5.8 mph - N/A   Clear
9:55 AM 49.3 °F - 4.6 °F 16% 30.28 in 10.0 mi WNW 3.5 mph - N/A   Clear
10:55 AM 49.3 °F - -0.6 °F 13% 30.30 in 10.0 mi West 20.7 mph 31.1 mph N/A   Clear
11:15 AM 49.5 °F - 2.1 °F 14% 30.31 in 10.0 mi WSW 15.0 mph 27.6 mph N/A   Clear
11:35 AM 49.3 °F - 5.5 °F 17% 30.32 in 10.0 mi West 20.7 mph 27.6 mph N/A   Clear
11:55 AM 48.9 °F - 10.8 °F 22% 30.33 in 10.0 mi North 6.9 mph 26.5 mph N/A   Clear
12:15 PM 48.7 °F - 12.0 °F 23% 30.34 in 10.0 mi NW 5.8 mph 16.1 mph N/A   Clear
12:35 PM 48.0 °F - 10.6 °F 22% 30.34 in 10.0 mi NNW 12.7 mph 20.7 mph N/A   Clear
12:55 PM 48.2 °F - 10.2 °F 22% 30.36 in 10.0 mi NNW 9.2 mph 23.0 mph N/A   Clear
1:15 PM 48.4 °F - 9.5 °F 21% 30.37 in 10.0 mi WNW 3.5 mph 19.6 mph N/A   Clear
1:35 PM 48.4 °F - 7.5 °F 19% 30.37 in 10.0 mi West 13.8 mph 26.5 mph N/A   Clear
1:55 PM 48.4 °F - 8.4 °F 20% 30.37 in 10.0 mi WNW 11.5 mph 18.4 mph N/A   Clear
2:15 PM 47.7 °F - 5.9 °F 18% 30.38 in 10.0 mi WNW 10.4 mph 17.3 mph N/A   Clear
2:35 PM 47.8 °F - 5.5 °F 18% 30.38 in 10.0 mi West 12.7 mph 18.4 mph N/A   Clear
2:55 PM 47.1 °F - 7.0 °F 20% 30.39 in 10.0 mi WNW 9.2 mph 17.3 mph N/A   Clear
3:15 PM 46.9 °F - 7.0 °F 20% 30.39 in 10.0 mi WSW 13.8 mph 19.6 mph N/A   Clear
3:55 PM 47.1 °F - 10.8 °F 23% 30.40 in 10.0 mi West 12.7 mph 20.7 mph N/A   Clear
4:15 PM 46.6 °F - 10.6 °F 23% 30.40 in 10.0 mi West 12.7 mph 18.4 mph N/A   Clear
4:35 PM 46.4 °F 40.1 °F 11.1 °F 24% 30.41 in 10.0 mi West 15.0 mph 20.7 mph N/A   Clear
4:55 PM 45.5 °F 39.6 °F 11.3 °F 25% 30.42 in 10.0 mi West 12.7 mph 21.9 mph N/A   Clear
5:15 PM 45.0 °F 38.2 °F 11.1 °F 25% 30.42 in 10.0 mi West 15.0 mph 20.7 mph N/A   Clear
5:35 PM 43.9 °F 37.5 °F 10.4 °F 26% 30.43 in 10.0 mi West 12.7 mph 20.7 mph N/A   Clear
5:55 PM 42.8 °F 35.8 °F 10.2 °F 26% 30.43 in 10.0 mi West 13.8 mph 17.3 mph N/A   Clear